Weather History for Wausau, WI

Change the Weather History Date:

Sunday, May 26, 2013

  Actual Average Record
Temperature  
Mean Temperature 54 °F 59 °F  
Max Temperature 66 °F 70 °F 91 °F (1967)
Min Temperature 41 °F 47 °F 30 °F (1905)
Degree Days  
Heating Degree Days 11 7  
Month to date heating degree days 266 276  
Since 1 July heating degree days 8145 8128  
Cooling Degree Days 0 1  
Month to date cooling degree days 17 9  
Year to date cooling degree days 18 11  
Growing Degree Days 3 (Base 50)    
Moisture  
Dew Point 37 °F    
Average Humidity 54    
Maximum Humidity 76    
Minimum Humidity 31    
Precipitation  
Precipitation 0.00 in 0.11 in 1.64 in (1921)
Month to date precipitation 3.24 2.84  
Year to date precipitation 12.96 9.27  
Snow  
Snow 0.00 in 0.00 in T in (1906)
Month to date snowfall 0.0 0.2  
Since 1 July snowfall 78.8 59.6  
Snow Depth 0.00 in    
Sea Level Pressure  
Sea Level Pressure 30.27 in    
Wind  
Wind Speed 9 mph (ESE)    
Max Wind Speed 17 mph    
Max Gust Speed 22 mph    
Visibility 10 miles    
Events      
T = Trace of Precipitation, MM = Missing Value Source: NWS Daily Summary

Daily Weather History Graph

Daily Weather History Graph

Search for Another Location

Airport:

Trip Planner

Search our weather history database for the weather conditions in past years. The results will help you decide how hot, cold, wet, or windy it might be!

Date:

Astronomy

May. 26, 2013 Rise Set
Actual Time 5:19 AM CDT 8:32 PM CDT
Civil Twilight 4:43 AM CDT 9:08 PM CDT
Nautical Twilight 3:57 AM CDT 9:54 PM CDT
Astronomical Twilight 3:00 AM CDT 10:51 PM CDT
Moon 10:18 PM CDT (5/26) 6:48 AM CDT (5/26)
Length of Visible Light 16h 24m
Length of Day
15h 13m
Waning Gibbous, 96% of the Moon is Illuminated
May 26
Waning Gibbous
May 31
Last Quarter
Jun 8
New
Jun 16
First Quarter
Jun 23
Full

Hourly Weather History & Observations

Time (CDT) Temp. Windchill Dew Point Humidity Pressure Visibility Wind Dir Wind Speed Gust Speed Precip Events Conditions
12:54 AM 48.0 °F - 37.0 °F 66% 30.33 in 10.0 mi Calm Calm - N/A   Clear
1:54 AM 45.0 °F - 37.0 °F 74% 30.32 in 10.0 mi Calm Calm - N/A   Clear
2:54 AM 43.0 °F 41.3 °F 36.0 °F 76% 30.31 in 10.0 mi ESE 3.5 mph - N/A   Clear
3:54 AM 42.1 °F - 36.0 °F 79% 30.31 in 10.0 mi Calm Calm - N/A   Clear
4:54 AM 42.1 °F - 35.1 °F 76% 30.31 in 10.0 mi Calm Calm - N/A   Clear
5:54 AM 42.1 °F 40.2 °F 36.0 °F 79% 30.32 in 10.0 mi ESE 3.5 mph - N/A   Clear
6:54 AM 45.0 °F 40.6 °F 35.1 °F 68% 30.34 in 10.0 mi East 8.1 mph - N/A   Clear
7:54 AM 51.1 °F - 34.0 °F 52% 30.34 in 10.0 mi East 9.2 mph - N/A   Clear
8:54 AM 55.0 °F - 34.0 °F 45% 30.33 in 10.0 mi East 10.4 mph - N/A   Clear
9:54 AM 59.0 °F - 34.0 °F 39% 30.31 in 10.0 mi East 12.7 mph - N/A   Clear
10:54 AM 60.1 °F - 32.0 °F 35% 30.31 in 10.0 mi ESE 12.7 mph - N/A   Clear
11:54 AM 61.0 °F - 32.0 °F 34% 30.30 in 10.0 mi ESE 12.7 mph 19.6 mph N/A   Clear
12:54 PM 64.0 °F - 34.0 °F 33% 30.29 in 10.0 mi ESE 11.5 mph 21.9 mph N/A   Clear
1:54 PM 64.0 °F - 36.0 °F 35% 30.27 in 10.0 mi ESE 12.7 mph 19.6 mph N/A   Clear
2:54 PM 64.0 °F - 36.0 °F 35% 30.26 in 10.0 mi East 8.1 mph 20.7 mph N/A   Partly Cloudy
3:54 PM 64.9 °F - 37.9 °F 37% 30.24 in 10.0 mi East 15.0 mph - N/A   Clear
4:54 PM 63.0 °F - 37.9 °F 40% 30.22 in 10.0 mi East 11.5 mph 17.3 mph N/A   Clear
5:54 PM 63.0 °F - 39.0 °F 41% 30.20 in 10.0 mi ESE 9.2 mph - N/A   Clear
6:54 PM 63.0 °F - 37.9 °F 40% 30.19 in 10.0 mi ESE 11.5 mph 19.6 mph N/A   Clear
7:54 PM 60.1 °F - 39.9 °F 47% 30.20 in 10.0 mi ESE 11.5 mph - N/A   Mostly Cloudy
8:54 PM 57.9 °F - 41.0 °F 53% 30.21 in 10.0 mi East 8.1 mph - N/A   Overcast
9:54 PM 54.0 °F - 41.0 °F 62% 30.20 in 10.0 mi East 6.9 mph - N/A   Clear
10:54 PM 51.1 °F - 42.1 °F 71% 30.20 in 10.0 mi East 6.9 mph - N/A   Clear
11:54 PM 51.1 °F - 42.1 °F 71% 30.20 in 10.0 mi East 8.1 mph - N/A   Overcast